Showing default

CALSPHERE 4(A), 1520

Orbit data source: Space-Track

CALSPHERE 4(A), 1520 is a payload satellite owned by NRL (US) in LEO that was launched on Fri, 13 Aug 1965 UTC via a THOR ABLESTAR launch vehicle from the Air Force Western Test Range (AFWTR). Payload-class satellites include a variety of spacecraft equipped with specific instruments for various scientific and technological missions. These include communications satellites like Starlink; space stations such as the ISS; scientific satellites like the Hubble; Earth observation satellites from companies like Planet Labs, Umbra, and HawkEye 360; GPS; miniature CubeSats for education and research; and military/defense satellites.

Loading next visibility...
Identifier
1520, 1965-065H
Orbit
LEO
Country
Flag of USUS
Related business
Manufacturer
NRL
Mission
Operational spacecraft
Bus & Motor
NRL 14", Unknown motor
Mass
4 kg wet, 4 kg dry
Launch date (UTC)
1965-08-13 (60 years ago)
Launch vehicle
THOR ABLESTAR
Launch site
Air Force Western Test Range (AFWTR)
Object type
Payload
Rocket body
Debris
Shape & HBR
Unknown
Radar Cross Section
Small (<0.1 m²)

Expand to show TLE details & history
Last TLE update: 12 hours ago

TLE from 12 hours ago
0 CALSPHERE 4(A)
1 01520U 65065H   25304.26708032  .00000156  00000-0  28208-3 0  9997
2 01520  89.9082 124.6154 0070551  30.8993 152.4037 13.36227488932133
Epoch: 2025-10-31T06:24Z
TLE epoch observation values (Epoch: 2025-10-31T06:24:35.739Z)
Latitude
-3.81047°
Longitude
168.6586°
Altitude
1,173.866 km
Speed
7.243 km/s
True Right ascension
20h 18m 29s
True Declination
-3° 47' 20"
Sunlit
Object was in daylight at epoch
Visualization orbit readout
Latitude
Unknown
Longitude
Unknown
Altitude
Unknown
Speed
Unknown
Apparent Right ascension
Unknown
Apparent Declination
Unknown
Sunlit
N/A
Visualization observer readout
Local Sidereal Time
14:25:50
Azimuth
Unknown
Elevation
Unknown
Doppler factor
Unknown
Orbital elements
Apogee altitude
1,173.338 km
Perigee altitude
1,067.532 km
Semi-major axis
7,498.572 km
Eccentricity
0.00706
Inclination
89.9082°
RAAN
124.6154°
Arg. of periapsis
30.8993°
True anomaly
152.7753°
Mean anomaly
152.4037°
Eccentric anomaly
152.58979°
Mean motion
3.34253 °/min
Orbital period
107.7 mins
BSTAR
0.00028208
Loading maneuver chart data...
Computing Atmospheric mass density...
Loading historical data...
Loading historical data...
Loading historical data...
Loading historical data...
Loading historical data...
Loading historical data...
Loading historical data...

Documentation

Showing up to 5 results
|